[[{"header":{"parameterUnit":"m.s-1","parameterCategory":1,"la1":30.2991,"la2":30.254,"lo1":-89.0895,"lo2":-89.0444,"dy":0.0017,"dx":0.0017,"nx":28,"ny":28,"refTime":"2024-09-25T03:00:00:Z","depth":0,"parameterNumber":2,"parameterNumberName":"U-component_of_WINDS"},"data":[0,0,0,0,0,0,0,0,0,0,0,0,0,0,0,0,0,0,0,0,0,0,0,0,0,0,0,0,0,0,0,0,0,0,0,0,0,0,0,0,0,0,0,0,0,0,0,0,0,0,0,0,0,0,0,0,0,0,-1.7491,-1.7489,0,-1.7344,-1.7343,-1.7341,-1.7229,-1.7228,-1.7227,-1.7226,-1.7071,-1.7068,-1.7065,0,0,0,0,0,0,0,0,0,0,0,0,0,-1.7668,-1.7666,-1.7491,-1.7489,-1.7487,-1.7345,-1.7343,-1.7341,-1.7229,-1.7228,-1.7227,-1.7225,-1.7072,-1.7069,-1.7065,0,0,0,0,0,0,0,0,0,0,0,0,0,-1.7564,-1.7665,-1.7491,-1.7414,-1.7406,-1.7345,-1.7343,-1.734,-1.7229,-1.7228,-1.7226,-1.7225,-1.7074,-1.7069,-1.7064,-1.7066,0,0,-1.705,-1.7048,0,0,0,0,0,0,0,0,-1.757,-1.7557,-1.7428,-1.742,-1.741,-1.7303,-1.7348,-1.7248,-1.723,-1.7296,-1.7226,-1.7224,-1.7149,-1.7138,-1.7114,-1.7059,-1.7052,-1.705,-1.7047,-1.7045,-1.7043,0,0,0,0,0,0,0,-1.7577,-1.7563,-1.7433,-1.7426,-1.7415,-1.7386,-1.7369,-1.7329,-1.7233,-1.729,-1.7282,-1.7266,-1.7144,-1.7119,-1.711,-1.705,-1.705,-1.7045,-1.7043,-1.7041,-1.6987,-1.6989,0,0,0,0,0,0,-1.7597,-1.757,-1.7437,-1.7428,-1.7488,-1.7384,-1.7365,-1.7339,-1.7233,-1.7216,-1.7268,-1.7262,-1.7128,-1.7115,-1.7104,-1.7098,-1.7045,-1.704,-1.7038,-1.6986,-1.6988,-1.6989,0,0,0,0,0,0,-1.7601,-1.7586,-1.7443,-1.7497,-1.7476,-1.7382,-1.7354,-1.7337,-1.7312,-1.7216,-1.7198,-1.726,-1.7126,-1.7111,-1.7076,-1.7092,-1.7038,-1.7034,-1.6984,-1.6987,-1.6989,-1.7089,0,0,0,0,0,0,-1.7607,-1.7588,-1.759,-1.7498,-1.7474,-1.742,-1.7355,-1.7335,-1.7304,-1.7295,-1.7204,-1.7188,-1.7124,-1.7084,-1.7072,-1.7084,-1.703,-1.6983,-1.6985,-1.6988,-1.7084,-1.7094,-1.7103,0,0,0,0,0,-1.7614,-1.7623,-1.759,-1.7575,-1.7474,-1.7422,-1.7408,-1.7335,-1.7306,-1.7306,-1.7244,-1.7191,-1.7092,-1.7082,-1.7067,-1.7078,-1.6981,-1.6985,-1.6988,-1.7079,-1.7092,-1.7103,0,0,0,0,0,0,-1.7718,-1.7609,-1.7572,-1.7552,-1.7497,-1.7403,-1.74,-1.7351,-1.7302,-1.7295,-1.7206,-1.7186,-1.7161,-1.7116,-1.7106,-1.7073,-1.703,-1.703,-1.7104,-1.7116,-1.7125,-1.7137,-1.7026,0,0,0,0,0,-1.7739,-1.7707,-1.7613,-1.7605,-1.7579,-1.7495,-1.7469,-1.7419,-1.7357,-1.7333,-1.7269,-1.721,-1.7165,-1.7138,-1.7091,-1.7076,-1.7054,-1.7076,-1.7086,-1.7094,-1.7096,-1.7083,-1.7091,-1.7,-1.7,-1.7,0,0,-1.7781,-1.7718,-1.7703,-1.7624,-1.7576,-1.7543,-1.7476,-1.7445,-1.7419,-1.7327,-1.7292,-1.7243,-1.7171,-1.7146,-1.7132,-1.7107,-1.7116,-1.7099,-1.7106,-1.7102,-1.7087,-1.7096,-1.7104,-1.7002,-1.7002,-1.7001,0,0,-1.7842,-1.7792,-1.7779,-1.7732,-1.7659,-1.7603,-1.76,-1.7513,-1.7477,-1.744,-1.737,-1.7337,-1.7263,-1.7214,-1.718,-1.7222,-1.717,-1.7209,-1.7259,-1.7248,-1.7255,-1.7261,-1.7275,-1.7281,-1.7211,-1.7211,-1.7211,0,-1.7904,-1.7854,-1.7778,-1.7751,-1.7718,-1.7635,-1.762,-1.7577,-1.7493,-1.7471,-1.7445,-1.7349,-1.7295,-1.7257,-1.7267,-1.7242,-1.7235,-1.7219,-1.7261,-1.7266,-1.727,-1.7282,-1.7288,-1.7216,-1.7215,-1.7215,-1.7214,0,-1.7933,-1.79,-1.7898,-1.782,-1.7786,-1.7766,-1.7685,-1.7659,-1.7611,-1.7557,-1.7519,-1.7451,-1.7389,-1.7376,-1.7328,-1.7331,-1.7318,-1.7278,-1.7232,-1.7285,-1.7295,-1.73,-1.7224,-1.7222,-1.722,-1.7219,0,0,-1.8056,-1.7937,-1.7938,-1.7901,-1.7814,-1.7786,-1.7761,-1.7702,-1.7681,-1.7625,-1.7601,-1.7539,-1.7501,-1.7462,-1.7407,-1.7398,-1.7434,-1.7357,-1.7354,-1.7374,-1.7431,-1.7463,-1.747,-1.7399,-1.74,-1.74,-1.7437,0,-1.8104,-1.8056,-1.7987,-1.7961,-1.7928,-1.7848,-1.7825,-1.7769,-1.7717,-1.768,-1.7622,-1.758,-1.7533,-1.7509,-1.7495,-1.7433,-1.7444,-1.7429,-1.7374,-1.7373,-1.7395,-1.7475,-1.7508,-1.7546,-1.7441,-1.7441,-1.7442,0,-1.8153,-1.8103,-1.8075,-1.7991,-1.7974,-1.7956,-1.7895,-1.7862,-1.7795,-1.7758,-1.7714,-1.7655,-1.7622,-1.7581,-1.7533,-1.7524,-1.7497,-1.7463,-1.7462,-1.7454,-1.7411,-1.7469,-1.7557,-1.7563,-1.7447,-1.7447,-1.7447,0,-1.8246,-1.8171,-1.8145,-1.8116,-1.8016,-1.8005,-1.7963,-1.7895,-1.7863,-1.781,-1.7788,-1.7731,-1.77,-1.7656,-1.7582,-1.7559,-1.7542,-1.7495,-1.7509,-1.7511,-1.7509,-1.751,-1.7594,-1.7492,-1.7492,-1.7492,-1.7492,0,-1.8306,-1.8292,-1.8185,-1.8169,-1.8149,-1.8068,-1.8051,-1.8001,-1.7941,-1.7912,-1.7838,-1.7812,-1.7716,-1.7678,-1.762,-1.7588,-1.7575,-1.7542,-1.7527,-1.7549,-1.7553,-1.753,-1.7525,-1.7493,-1.7493,-1.7493,-1.7492,0,-1.8406,-1.8335,-1.83,-1.8209,-1.8186,-1.8176,-1.8096,-1.8076,-1.802,-1.7984,-1.7971,-1.7882,-1.7833,-1.7755,-1.7683,-1.7644,-1.7622,-1.7597,-1.7646,-1.7636,-1.7654,-1.7654,-1.7726,-1.7731,-1.7628,-1.7629,-1.763,0,-1.845,-1.8437,-1.8345,-1.8321,-1.8282,-1.8244,-1.8212,-1.8131,-1.81,-1.8023,-1.8012,-1.7958,-1.791,-1.7835,-1.7763,-1.7707,-1.7679,-1.7708,-1.767,-1.7692,-1.7679,-1.7681,-1.7678,-1.7718,-1.7719,-1.772,-1.7721,0,-1.8534,-1.8499,-1.8457,-1.8402,-1.8366,-1.8318,-1.8267,-1.8251,-1.8158,-1.8126,-1.8077,-1.804,-1.7966,-1.7913,-1.7847,-1.78,-1.7745,-1.7734,-1.7734,-1.7756,-1.7785,-1.7769,-1.767,-1.7733,-1.7732,-1.7731,-1.773,-1.773,-1.8607,-1.8592,-1.8525,-1.8479,-1.8432,-1.8386,-1.8362,-1.8303,-1.8261,-1.8196,-1.815,-1.8103,-1.8034,-1.794,-1.7896,-1.7857,-1.7832,-1.7833,-1.7833,-1.7834,-1.7842,-1.7792,-1.7844,-1.7844,-1.7843,-1.7843,-1.7843,0,-1.8687,-1.864,-1.8599,-1.853,-1.8494,-1.8447,-1.8387,-1.8359,-1.832,-1.8261,-1.8216,-1.8158,-1.8105,-1.8029,-1.7969,-1.7952,-1.7925,-1.7939,-1.794,-1.793,-1.7867,-1.7873,-1.7962,-1.7962,-1.7962,-1.7962,-1.7962,-1.7962,-1.8725,-1.8697,-1.8653,-1.86,-1.8552,-1.8507,-1.8476,-1.8432,-1.8385,-1.8324,-1.8281,-1.8232,-1.8165,-1.81,-1.8049,-1.8027,-1.8009,-1.8031,-1.8002,-1.7945,-1.7934,-1.7924,-1.7928,-1.8028,-1.8028,-1.8067,-1.8067,-1.8067]},{"header":{"parameterUnit":"m.s-1","parameterCategory":1,"la1":30.2991,"la2":30.254,"lo1":-89.0895,"lo2":-89.0444,"dy":0.0017,"dx":0.0017,"nx":28,"ny":28,"refTime":"2024-09-25T03:00:00:Z","depth":0,"parameterNumber":3,"parameterNumberName":"V-component_of_WINDS"},"data":[0,0,0,0,0,0,0,0,0,0,0,0,0,0,0,0,0,0,0,0,0,0,0,0,0,0,0,0,0,0,0,0,0,0,0,0,0,0,0,0,0,0,0,0,0,0,0,0,0,0,0,0,0,0,0,0,0,0,-8.581,-8.5812,0,-8.5931,-8.5932,-8.5933,-8.5837,-8.5833,-8.5829,-8.5825,-8.5941,-8.5948,-8.5955,0,0,0,0,0,0,0,0,0,0,0,0,0,-8.5493,-8.5499,-8.581,-8.5812,-8.5813,-8.593,-8.5932,-8.5934,-8.5838,-8.5833,-8.5828,-8.5823,-8.5939,-8.5947,-8.5956,0,0,0,0,0,0,0,0,0,0,0,0,0,-8.5623,-8.5501,-8.581,-8.578,-8.5778,-8.593,-8.5932,-8.5934,-8.5839,-8.5833,-8.5827,-8.5821,-8.5936,-8.5947,-8.5957,-8.6142,0,0,-8.5988,-8.5993,0,0,0,0,0,0,0,0,-8.5616,-8.5635,-8.5783,-8.5782,-8.5781,-8.5863,-8.5862,-8.6004,-8.584,-8.5816,-8.5825,-8.5818,-8.592,-8.5931,-8.5967,-8.6148,-8.6153,-8.5989,-8.5995,-8.6,-8.6003,0,0,0,0,0,0,0,-8.5607,-8.5629,-8.5857,-8.5785,-8.5784,-8.5758,-8.577,-8.5889,-8.59,-8.5817,-8.5811,-8.5827,-8.5918,-8.5957,-8.5969,-8.6155,-8.5989,-8.5998,-8.6004,-8.6008,-8.6495,-8.6502,0,0,0,0,0,0,-8.5602,-8.5622,-8.5854,-8.5861,-8.5682,-8.5769,-8.5782,-8.5842,-8.5899,-8.5902,-8.5832,-8.5822,-8.5942,-8.5957,-8.5972,-8.6195,-8.6,-8.6009,-8.6015,-8.6489,-8.6497,-8.6504,0,0,0,0,0,0,-8.5595,-8.5623,-8.5849,-8.574,-8.5767,-8.5781,-8.5849,-8.5848,-8.5887,-8.591,-8.591,-8.587,-8.5938,-8.5958,-8.6102,-8.6197,-8.6014,-8.6024,-8.6481,-8.6491,-8.65,-8.664,0,0,0,0,0,0,-8.5587,-8.5622,-8.5694,-8.5743,-8.5773,-8.5978,-8.5855,-8.5855,-8.5906,-8.5894,-8.5946,-8.5948,-8.5935,-8.6087,-8.6112,-8.6208,-8.6032,-8.6472,-8.6485,-8.6497,-8.6627,-8.6653,-8.6676,0,0,0,0,0,-8.5576,-8.5726,-8.5698,-8.5726,-8.5864,-8.5984,-8.6001,-8.5984,-8.5914,-8.5986,-8.6,-8.5947,-8.6183,-8.6102,-8.613,-8.623,-8.6466,-8.6481,-8.6496,-8.6615,-8.6648,-8.6676,0,0,0,0,0,0,-8.5685,-8.5732,-8.5701,-8.5872,-8.5925,-8.5967,-8.6057,-8.6019,-8.6091,-8.6077,-8.6051,-8.6064,-8.6215,-8.6237,-8.6146,-8.6414,-8.6313,-8.6334,-8.6394,-8.6425,-8.645,-8.6441,-8.604,0,0,0,0,0,-8.5729,-8.5825,-8.586,-8.6008,-8.6036,-8.6043,-8.6094,-8.6078,-8.613,-8.6151,-8.6176,-8.6228,-8.6314,-8.6371,-8.6451,-8.663,-8.6639,-8.6712,-8.6737,-8.6757,-8.6776,-8.6873,-8.6906,-8.6554,-8.6554,-8.6553,0,0,-8.5821,-8.5859,-8.592,-8.6031,-8.607,-8.6168,-8.6062,-8.617,-8.6242,-8.6167,-8.6305,-8.6326,-8.6381,-8.6544,-8.6617,-8.6567,-8.6876,-8.6777,-8.6793,-8.68,-8.6892,-8.6925,-8.6955,-8.6564,-8.6562,-8.6561,0,0,-8.6039,-8.6077,-8.6205,-8.6248,-8.6309,-8.6313,-8.6344,-8.6393,-8.6405,-8.6544,-8.649,-8.6574,-8.6722,-8.6765,-8.6806,-8.7043,-8.6996,-8.707,-8.7199,-8.7294,-8.7321,-8.7346,-8.7431,-8.7461,-8.7088,-8.7088,-8.7089,0,-8.6144,-8.6293,-8.6275,-8.6389,-8.6439,-8.6378,-8.6507,-8.6548,-8.6632,-8.6667,-8.6611,-8.6797,-8.683,-8.7002,-8.7061,-8.7096,-8.7129,-8.7063,-8.7319,-8.7343,-8.7366,-8.7447,-8.7479,-8.7097,-8.7096,-8.7095,-8.7094,0,-8.642,-8.6523,-8.6619,-8.6705,-8.6766,-8.6886,-8.6886,-8.6949,-8.6928,-8.6937,-8.7079,-8.7118,-8.7205,-8.7245,-8.7223,-8.7415,-8.7382,-8.7323,-8.7221,-8.7409,-8.7484,-8.7514,-8.7109,-8.7106,-8.7104,-8.7102,0,0,-8.6708,-8.6785,-8.6821,-8.686,-8.6924,-8.7003,-8.7121,-8.7209,-8.7264,-8.7324,-8.7422,-8.755,-8.7497,-8.7544,-8.7526,-8.761,-8.7796,-8.7541,-8.7541,-8.7587,-8.801,-8.8054,-8.809,-8.7766,-8.7772,-8.7776,-8.8005,0,-8.6929,-8.7137,-8.7125,-8.7319,-8.7415,-8.736,-8.7462,-8.7513,-8.7525,-8.7606,-8.7618,-8.771,-8.7633,-8.7661,-8.7741,-8.7757,-8.788,-8.774,-8.7855,-8.7859,-8.7843,-8.8129,-8.8175,-8.8389,-8.8034,-8.8039,-8.8043,0,-8.7214,-8.7288,-8.7493,-8.7546,-8.7585,-8.7678,-8.7759,-8.7838,-8.7893,-8.7896,-8.795,-8.792,-8.8037,-8.7934,-8.8095,-8.8,-8.8046,-8.8061,-8.8069,-8.8078,-8.7962,-8.8146,-8.8457,-8.8489,-8.8089,-8.8085,-8.8082,0,-8.7405,-8.7555,-8.7697,-8.7732,-8.7797,-8.7863,-8.7893,-8.7943,-8.7997,-8.8067,-8.8102,-8.8184,-8.8229,-8.8293,-8.8285,-8.821,-8.8449,-8.8344,-8.8454,-8.8454,-8.8506,-8.8503,-8.8829,-8.8537,-8.8536,-8.8536,-8.8535,0,-8.7653,-8.778,-8.7784,-8.7871,-8.8012,-8.7998,-8.8137,-8.8159,-8.8205,-8.8294,-8.8251,-8.8335,-8.832,-8.8404,-8.8399,-8.8534,-8.8554,-8.8558,-8.8555,-8.8563,-8.8562,-8.8592,-8.8577,-8.8544,-8.8542,-8.8541,-8.8539,0,-8.7889,-8.7897,-8.8048,-8.8099,-8.8114,-8.8216,-8.8258,-8.834,-8.8349,-8.8464,-8.8489,-8.8504,-8.8601,-8.86,-8.871,-8.8706,-8.8871,-8.8851,-8.8854,-8.885,-8.896,-8.8949,-8.9316,-8.9363,-8.9041,-8.9044,-8.9046,0,-8.8047,-8.8144,-8.8206,-8.8265,-8.8299,-8.8393,-8.845,-8.8439,-8.8499,-8.8572,-8.8645,-8.8739,-8.8813,-8.8971,-8.899,-8.9074,-8.9055,-8.9178,-8.9067,-8.9072,-8.9057,-8.9052,-8.9061,-8.9199,-8.9203,-8.9206,-8.9208,0,-8.8326,-8.8326,-8.841,-8.8498,-8.8567,-8.8634,-8.8696,-8.8745,-8.8741,-8.8811,-8.8912,-8.897,-8.9084,-8.9177,-8.9259,-8.9286,-8.9247,-8.9243,-8.9273,-8.9281,-8.9279,-8.9282,-8.8913,-8.9235,-8.9232,-8.923,-8.9229,-8.9228,-8.8528,-8.8613,-8.867,-8.8766,-8.8813,-8.8872,-8.8953,-8.8974,-8.9058,-8.9152,-8.914,-8.9253,-8.9306,-8.9412,-8.9447,-8.9534,-8.949,-8.9533,-8.9544,-8.9555,-8.9568,-8.9266,-8.9548,-8.9547,-8.9547,-8.9546,-8.9546,0,-8.8806,-8.8841,-8.893,-8.9019,-8.9095,-8.9054,-8.9121,-8.9186,-8.9287,-8.9341,-8.9417,-8.9533,-8.9624,-8.9651,-8.9738,-8.9802,-8.9787,-8.9826,-8.9821,-8.9828,-8.9601,-8.9567,-8.9837,-8.9837,-8.9837,-8.9837,-8.9837,-8.9837,-8.8959,-8.9101,-8.9108,-8.9272,-8.9305,-8.9417,-8.9459,-8.9513,-8.9557,-8.969,-8.9766,-8.9785,-8.9828,-8.9919,-9.0,-9.0006,-9.004,-9.0087,-9.0085,-8.9873,-8.9844,-8.9816,-8.9783,-9.0095,-9.0095,-9.0304,-9.0306,-9.0308]}]]